Regional Weather Roundup
Issued by NWS

Home | Current Version | Previous Version | Graphics & Text | Print | Product List | Glossary On
Versions: 1 2 3 4 5 6 7 8 9 10 11 12 13 14 15 16 17 18 19 20 21 22 23 24 25 26 27 28 29 30 31 32 33 34 35 36 37 38 39 40 41 42 43 44 45 46 47 48 49 50
000
ASUS45 KABQ 111601
RWRNM
NEW MEXICO REGIONAL WEATHER ROUNDUP
NATIONAL WEATHER SERVICE ALBUQUERQUE NM
900 AM MST MON DEC 11 2017

NOTE: "FAIR" MEANS FEW OR NO CLOUDS BELOW 12,000 FEET AGL WITH NO
       SIGNIFICANT WEATHER OR OBSTRUCTIONS TO VISION.

      THIS PRODUCT IS RELEASED AS TWO VERSIONS.  ONE VERSION NEAR
      THE TOP OF THE HOUR CONTAINING PRELIMINARY DATA FROM ALBUQUERQUE
      AND OTHER STATIONS.  A FINAL VERSION WITH ADDITIONAL DATA IS
      ISSUED ABOUT 10 MINUTES AFTER THE HOUR.

NMZ501-503-504-510>518-111700-
NORTHWEST PLATEAU/NORTHCENTRAL MOUNTAINS

CITY           SKY/WX    TMP DP  RH WIND       PRES   REMARKS
FARMINGTON     FAIR      21   2  43 E7        30.52S WCI  12
LOS ALAMOS     FAIR      33  -3  21 N10G17    30.47S WCI  25
SANTA FE       FAIR      30   1  29 N13       30.45R WCI  20
TAOS           FAIR      27   3  35 CALM      30.51F
ANGEL FIRE     FAIR      18   6  60 CALM      30.51F

$$
NMZ402-403-502-505>509-111700-
WESTCENTRAL MOUNTAINS/SOUTHWEST MOUNTAINS

CITY           SKY/WX    TMP DP  RH WIND       PRES   REMARKS
GALLUP         FAIR      17 -11  28 CALM      30.52R
GRANTS         FAIR      20 -11  25 NW8       30.52S WCI  10
SILVER CITY    FAIR      39   4  23 CALM      30.40S

$$
NMZ407-409-411-412-111700-
SOUTHERN DESERTS

CITY           SKY/WX    TMP DP  RH WIND       PRES   REMARKS
DEMING         FAIR      38   8  29 E3        30.41S
LAS CRUCES     FAIR      42  11  28 N5        30.42S
HOLLOMAN AFB   FAIR      31   9  39 CALM      30.43F
ALAMOGORDO     FAIR      36  14  41 NE3       30.41F
T OR C         FAIR      35   4  27 N3        30.44S

$$
NMZ519>523-111700-
CENTRAL VALLEYS/CENTRAL HIGHLANDS

CITY           SKY/WX    TMP DP  RH WIND       PRES   REMARKS
ALBUQUERQUE    PTSUNNY   32   3  29 N7        30.46F WCI  26
DOUBLE EAGLE   MOSUNNY   34   1  25 VRB3      30.46F
MORIARTY ARPT  FAIR      33   4  29 NE6       30.45S WCI  27
CLINES CORNERS FAIR      31  -1  25 W17       30.42F WCI  19
BELEN          FAIR      31  -1  25 NW5       30.48R WCI  26
SOCORRO        FAIR      31   1  28 NW9       30.47R WCI  23

$$
NMZ524>526-539-540-111700-
SOUTHCENTRAL MOUNTAINS

CITY           SKY/WX    TMP DP  RH WIND       PRES   REMARKS
RUIDOSO        FAIR      46  -8  10 NW7       30.43S

$$
NMZ527>531-111700-
NORTHEAST HIGHLANDS/NORTHEAST PLAINS

CITY           SKY/WX    TMP DP  RH WIND       PRES   REMARKS
LAS VEGAS      FAIR      45  -1  14 N8        30.40S
RATON          FAIR      36   5  27 E3        30.36F
CLAYTON        FAIR      55  -5   8 N15       30.32R

$$
NMZ532>537-111700-
EASTCENTRAL PLAINS

CITY           SKY/WX    TMP DP  RH WIND       PRES   REMARKS
SANTA ROSA     FAIR      40   2  20 CALM      30.34S
TUCUMCARI      FAIR      41   8  25 W7        30.31R
CANNON AFB     NOT AVBL
CLOVIS AIRPORT FAIR      44   9  23 NW13      30.32R

$$
NMZ028-029-538-111700-
SOUTHEAST PLAINS

CITY           SKY/WX    TMP DP  RH WIND       PRES   REMARKS
ROSWELL        FAIR      36  13  38 W3        30.34F
ARTESIA        FAIR      37  12  35 NW7       30.37R WCI  32
CARLSBAD       FAIR      39  27  62 W7        30.35R WCI  34
HOBBS          SUNNY     46  16  29 NW9       30.33S


$$




USA.gov is the U.S. government's official web portal to all federal, state and local government web resources and services.